User: anonymous   Login
Location: Hungerford
(51.4167°N, 1.5167°W)
Time: 00:26:16
(UTC+00:00)
Language:

NOSS 8 (H) - Orbit

View from above orbital plane
View from above orbital plane
View from above satellite
View from above satellite

Ground track
Ground track

The orbit data is extracted from the following two-line orbital elements,

1 18025U 87043H   20336.49142738 +.00001176 +00000-0 +10967-3 0  9991
2 18025 063.3022 058.4174 0943299 063.5027 305.9592 13.46069761076056
Epoch (UTC): 01 December 2020 11:47:39
Eccentricity: 0.0943299
inclination: 63.3022°
perigee height: 382 km
apogee height: 1791 km
right ascension of ascending node: 58.4174°
argument of perigee: 63.5027°
revolutions per day: 13.46069761
mean anomaly at epoch: 305.9592°
orbit number at epoch: 7605

The dashed part of the orbit path shows where the satellite is in the earth's shadow,  

DLR